GW2980 Weather Reports


time (UTC)temp
F
wind
direction
speed
knots
gust
knots
rain 1hr
in
rain 24hr
in
rain mn
in
humidity
%
barometer
mb
20260507234536 55 0.0 0.0 0.00 0.00 0.00 69 946.9
20260507233635 55 0.0 0.0 0.00 0.00 0.00 69 946.9
20260507233335 55 0.0 0.0 0.00 0.00 0.00 69 946.9
20260507233036 55 0.0 0.0 0.00 0.00 0.00 69 946.9
20260507232735 55 0.0 0.0 0.00 0.00 0.00 69 946.9
20260507232436 55 0.0 0.0 0.00 0.00 0.00 69 946.9
20260507232136 55 0.0 0.0 0.00 0.00 0.00 69 946.9
20260507231836 55 0.0 0.0 0.00 0.00 0.00 69 946.9
20260507231535 55 0.0 0.0 0.00 0.00 0.00 69 946.9
20260507230936 55 0.0 0.0 0.00 0.00 0.00 69 947.0
20260507230635 55 0.0 0.0 0.00 0.00 0.00 69 947.0
20260507230336 55 0.0 0.0 0.00 0.00 0.00 69 947.0
20260507230035 55 0.0 0.0 0.00 0.00 0.00 69 947.0
20260507225736 55 0.0 0.0 0.00 0.00 0.00 69 947.0
20260507225436 55 0.0 0.0 0.00 0.00 0.00 69 947.0
20260507225136 55 0.0 0.0 0.00 0.00 0.00 69 947.0
20260507224836 55 0.0 0.0 0.00 0.00 0.00 69 947.0
20260507223936 56 0.0 0.0 0.00 0.00 0.00 66 947.0
20260507223636 56 0.0 0.0 0.00 0.00 0.00 66 947.0
20260507223336 56 0.0 0.0 0.00 0.00 0.00 66 947.0
20260507223035 56 0.0 0.0 0.00 0.00 0.00 66 947.0
20260507222736 57 0.0 0.0 0.00 0.00 0.00 65 947.0
20260507222436 57 0.0 0.0 0.00 0.00 0.00 65 947.0
20260507222136 57 0.0 0.0 0.00 0.00 0.00 65 947.0
20260507221536 58 0.0 0.0 0.00 0.00 0.00 64 947.0
20260507221235 58 0.0 0.0 0.00 0.00 0.00 64 947.0
20260507220936 58 0.0 0.0 0.00 0.00 0.00 64 947.0
20260507220635 58 0.0 0.0 0.00 0.00 0.00 64 947.0
20260507220336 58 0.0 0.0 0.00 0.00 0.00 64 947.0
20260507220036 58 0.0 0.0 0.00 0.00 0.00 64 947.0
20260507215736 58 0.0 0.0 0.00 0.00 0.00 64 947.0
20260507215136 57 0.0 0.0 0.00 0.00 0.00 66 947.0
20260507214836 57 0.0 0.0 0.00 0.00 0.00 66 947.0
20260507214536 57 0.0 0.0 0.00 0.00 0.00 66 947.0
20260507214235 57 0.0 0.0 0.00 0.00 0.00 66 947.0
20260507213936 57 0.0 0.0 0.00 0.00 0.00 66 947.0
20260507213636 57 0.0 0.0 0.00 0.00 0.00 66 947.0
20260507213336 57 0.0 0.0 0.00 0.00 0.00 66 947.0
20260507213036 57 0.0 0.0 0.00 0.00 0.00 66 947.1
20260507212735 57 0.0 0.0 0.00 0.00 0.00 66 947.1
20260507212436 57 0.0 0.0 0.00 0.00 0.00 66 947.1
20260507212136 57 0.0 0.0 0.00 0.00 0.00 66 947.1
20260507211536 57 0.0 0.0 0.00 0.00 0.00 66 947.0
20260507210636 57 0.0 0.0 0.00 0.00 0.00 66 947.0
20260507210336 57 0.0 0.0 0.00 0.00 0.00 66 947.0
20260507210036 57 0.0 0.0 0.00 0.00 0.00 66 947.0
20260507205735 57 0.0 0.0 0.00 0.00 0.00 65 946.0
20260507205436 57 0.0 0.0 0.00 0.00 0.00 65 946.0
20260507205135 59 0.0 0.0 0.00 0.00 0.00 62 946.7
20260507204836 59 0.0 0.0 0.00 0.00 0.00 62 946.7
20260507204536 59 0.0 0.0 0.00 0.00 0.00 62 946.7
20260507204236 59 0.0 0.0 0.00 0.00 0.00 62 946.7
20260507203936 59 0.0 0.0 0.00 0.00 0.00 62 946.7
20260507203336 59 0.0 0.0 0.00 0.00 0.00 62 946.7
20260507203036 59 0.0 0.0 0.00 0.00 0.00 62 946.7
20260507202736 59 0.0 0.0 0.00 0.00 0.00 62 946.7
20260507202436 59 0.0 0.0 0.00 0.00 0.00 62 946.7
20260507202136 59 0.0 0.0 0.00 0.00 0.00 62 946.7
20260507201836 58 0.0 0.0 0.00 0.00 0.00 63 946.0
20260507201235 58 0.0 0.0 0.00 0.00 0.00 63 946.0
20260507200935 58 0.0 0.0 0.00 0.00 0.00 63 946.0
20260507200636 58 0.0 0.0 0.00 0.00 0.00 63 946.0
20260507200335 58 0.0 0.0 0.00 0.00 0.00 63 946.0
20260507195735 59 0.0 0.0 0.00 0.00 0.00 62 946.0
20260507195435 59 0.0 0.0 0.00 0.00 0.00 62 946.0
20260507195135 59 0.0 0.0 0.00 0.00 0.00 62 946.0
20260507194836 59 0.0 0.0 0.00 0.00 0.00 62 946.0
20260507194536 60 0.0 0.0 0.00 0.00 0.00 60 946.0
20260507193936 60 0.0 0.0 0.00 0.00 0.00 60 946.0
20260507193635 61 0.0 0.0 0.00 0.00 0.00 57 946.4
20260507193335 61 0.0 0.0 0.00 0.00 0.00 57 946.4
20260507193036 61 0.0 0.0 0.00 0.00 0.00 57 946.4
20260507192736 61 0.0 0.0 0.00 0.00 0.00 57 946.4
20260507191836 61 0.0 0.0 0.00 0.00 0.00 54 946.0
20260507191536 61 0.0 0.0 0.00 0.00 0.00 54 945.0
20260507190936 61 0.0 0.0 0.00 0.00 0.00 54 945.0
20260507190636 61 0.0 0.0 0.00 0.00 0.00 54 945.0
20260507190336 61 0.0 0.0 0.00 0.00 0.00 54 945.0
20260507190035 61 0.0 0.0 0.00 0.00 0.00 54 945.0
20260507185735 61 0.0 0.0 0.00 0.00 0.00 54 945.0
20260507185436 61 0.0 0.0 0.00 0.00 0.00 54 945.0
20260507185136 61 0.0 0.0 0.00 0.00 0.00 54 945.0
20260507184835 61 0.0 0.0 0.00 0.00 0.00 54 945.0
20260507184536 61 0.0 0.0 0.00 0.00 0.00 54 945.0
20260507184235 61 0.0 0.0 0.00 0.00 0.00 54 945.6
20260507183935 61 0.0 0.0 0.00 0.00 0.00 54 945.6
20260507183636 61 0.0 0.0 0.00 0.00 0.00 54 945.6
20260507183336 61 0.0 0.0 0.00 0.00 0.00 54 945.0
20260507183036 61 0.0 0.0 0.00 0.00 0.00 54 945.0
20260507182436 61 0.0 0.0 0.00 0.00 0.00 53 945.0
20260507182136 61 0.0 0.0 0.00 0.00 0.00 53 945.0
20260507181835 62 0.0 0.0 0.00 0.00 0.00 52 945.0
20260507181536 62 0.0 0.0 0.00 0.00 0.00 52 945.0
20260507181235 62 0.0 0.0 0.00 0.00 0.00 52 945.0
20260507180935 62 0.0 0.0 0.00 0.00 0.00 52 945.0
20260507180635 63 0.0 0.0 0.00 0.00 0.00 51 945.0
20260507180336 63 0.0 0.0 0.00 0.00 0.00 51 945.0
20260507180036 63 0.0 0.0 0.00 0.00 0.00 51 945.0
20260507175736 63 0.0 0.0 0.00 0.00 0.00 51 945.0
20260507175436 63 0.0 0.0 0.00 0.00 0.00 51 945.0
20260507175136 63 0.0 0.0 0.00 0.00 0.00 46 945.0
20260507174536 63 0.0 0.0 0.00 0.00 0.00 46 945.0
20260507174236 63 0.0 0.0 0.00 0.00 0.00 46 945.0
20260507173936 63 0.0 0.0 0.00 0.00 0.00 47 944.0
20260507173336 63 0.0 0.0 0.00 0.00 0.00 47 944.0
20260507173035 63 0.0 0.0 0.00 0.00 0.00 47 944.0
20260507172736 63 0.0 0.0 0.00 0.00 0.00 47 944.0
20260507172436 63 0.0 0.0 0.00 0.00 0.00 47 944.0
20260507172135 63 0.0 0.0 0.00 0.00 0.00 47 944.0
20260507171836 63 0.0 0.0 0.00 0.00 0.00 47 944.0
20260507171535 64 0.0 0.0 0.00 0.00 0.00 47 944.0
20260507171236 64 0.0 0.0 0.00 0.00 0.00 47 944.0
20260507170935 64 0.0 0.0 0.00 0.00 0.00 47 944.0
20260507170635 64 0.0 0.0 0.00 0.00 0.00 47 944.0
20260507170336 64 0.0 0.0 0.00 0.00 0.00 47 944.0
20260507170036 65 0.0 0.0 0.00 0.00 0.00 47 944.9
20260507165736 65 0.0 0.0 0.00 0.00 0.00 47 944.9
20260507165436 65 0.0 0.0 0.00 0.00 0.00 47 944.9
20260507165136 65 0.0 0.0 0.00 0.00 0.00 47 944.9
20260507164835 64 0.0 0.0 0.00 0.00 0.00 49 944.0
20260507164536 64 0.0 0.0 0.00 0.00 0.00 49 944.0
20260507164236 64 0.0 0.0 0.00 0.00 0.00 49 944.0
20260507163936 64 0.0 0.0 0.00 0.00 0.00 49 944.0
20260507163636 64 0.0 0.0 0.00 0.00 0.00 49 944.0
20260507163336 64 0.0 0.0 0.00 0.00 0.00 49 944.0
20260507163036 64 0.0 0.0 0.00 0.00 0.00 49 944.0
20260507162735 64 0.0 0.0 0.00 0.00 0.00 49 944.0
20260507162435 64 0.0 0.0 0.00 0.00 0.00 49 944.0
20260507160936 64 0.0 0.0 0.00 0.00 0.00 49 944.0
20260507160636 64 0.0 0.0 0.00 0.00 0.00 49 944.0
20260507160336 65 0.0 0.0 0.00 0.00 0.00 47 944.8
20260507160036 65 0.0 0.0 0.00 0.00 0.00 47 944.8
20260507155736 65 0.0 0.0 0.00 0.00 0.00 47 944.8
20260507155436 65 0.0 0.0 0.00 0.00 0.00 45 944.0
20260507155135 66 0.0 0.0 0.00 0.00 0.00 41 944.0
20260507154836 66 0.0 0.0 0.00 0.00 0.00 41 944.0
20260507154536 66 0.0 0.0 0.00 0.00 0.00 41 944.0
20260507154236 66 0.0 0.0 0.00 0.00 0.00 41 944.0
20260507153936 66 0.0 0.0 0.00 0.00 0.00 41 944.0
20260507153336 66 0.0 0.0 0.00 0.00 0.00 41 944.0
20260507153036 66 0.0 0.0 0.00 0.00 0.00 41 944.0
20260507152736 66 0.0 0.0 0.00 0.00 0.00 41 944.0
20260507152436 66 0.0 0.0 0.00 0.00 0.00 41 944.0
20260507152135 67 0.0 0.0 0.00 0.00 0.00 41 944.0
20260507151836 67 0.0 0.0 0.00 0.00 0.00 41 944.0
20260507151536 67 0.0 0.0 0.00 0.00 0.00 41 944.0
20260507151235 67 0.0 0.0 0.00 0.00 0.00 41 944.0
20260507150935 67 0.0 0.0 0.00 0.00 0.00 41 944.0
20260507150336 68 0.0 0.0 0.00 0.00 0.00 41 944.0
20260507150036 68 0.0 0.0 0.00 0.00 0.00 41 944.0
20260507145736 69 0.0 0.0 0.00 0.00 0.00 40 944.0
20260507145436 70 0.0 0.0 0.00 0.00 0.00 41 944.0
20260507145136 70 0.0 0.0 0.00 0.00 0.00 41 944.0
20260507144836 70 0.0 0.0 0.00 0.00 0.00 41 944.0
20260507144535 70 0.0 0.0 0.00 0.00 0.00 41 944.0
20260507144235 70 0.0 0.0 0.00 0.00 0.00 41 944.0
20260507143636 69 0.0 0.0 0.00 0.00 0.00 45 945.0
20260507143336 69 0.0 0.0 0.00 0.00 0.00 45 945.0
20260507143036 69 0.0 0.0 0.00 0.00 0.00 45 945.0
20260507142736 69 0.0 0.0 0.00 0.00 0.00 45 945.0
20260507142436 69 0.0 0.0 0.00 0.00 0.00 45 945.0
20260507142135 69 0.0 0.0 0.00 0.00 0.00 47 945.0
20260507141836 69 0.0 0.0 0.00 0.00 0.00 47 945.0
20260507141536 69 0.0 0.0 0.00 0.00 0.00 47 945.0
20260507140936 68 0.0 0.0 0.00 0.00 0.00 49 945.0
20260507140636 67 0.0 0.0 0.00 0.00 0.00 49 945.2
20260507140335 67 0.0 0.0 0.00 0.00 0.00 50 945.0
20260507140036 66 0.0 0.0 0.00 0.00 0.00 51 945.0
20260507135736 65 0.0 0.0 0.00 0.00 0.00 54 945.0
20260507135436 65 0.0 0.0 0.00 0.00 0.00 54 945.0
20260507134836 64 0.0 0.0 0.00 0.00 0.00 54 945.0
20260507134536 64 0.0 0.0 0.00 0.00 0.00 54 945.0
20260507134235 64 0.0 0.0 0.00 0.00 0.00 54 945.0
20260507133935 65 0.0 0.0 0.00 0.00 0.00 51 945.0
20260507133636 65 0.0 0.0 0.00 0.00 0.00 51 945.0
20260507133336 65 0.0 0.0 0.00 0.00 0.00 51 945.0
20260507133035 65 0.0 0.0 0.00 0.00 0.00 51 945.0
20260507132436 66 0.0 0.0 0.00 0.00 0.00 44 945.0
20260507132136 66 0.0 0.0 0.00 0.00 0.00 44 945.0
20260507131536 67 0.0 0.0 0.00 0.00 0.00 42 945.0
20260507130936 68 0.0 0.0 0.00 0.00 0.00 41 945.0
20260507130635 68 0.0 0.0 0.00 0.00 0.00 41 945.0
20260507130336 68 0.0 0.0 0.00 0.00 0.00 41 945.0
20260507125736 69 0.0 0.0 0.00 0.00 0.00 38 944.0
20260507125435 69 0.0 0.0 0.00 0.00 0.00 38 944.0
20260507125135 69 0.0 0.0 0.00 0.00 0.00 38 944.0
20260507124836 69 0.0 0.0 0.00 0.00 0.00 38 944.0
20260507124536 69 0.0 0.0 0.00 0.00 0.00 38 944.0
20260507124236 69 0.0 0.0 0.00 0.00 0.00 38 944.0
20260507123936 69 0.0 0.0 0.00 0.00 0.00 40 944.0
20260507123636 69 0.0 0.0 0.00 0.00 0.00 40 944.0
20260507123335 69 0.0 0.0 0.00 0.00 0.00 40 944.0
20260507123036 70 0.0 0.0 0.00 0.00 0.00 40 944.0
20260507122736 71 0.0 0.0 0.00 0.00 0.00 39 944.8
20260507122436 71 0.0 0.0 0.00 0.00 0.00 39 944.8
20260507122136 71 0.0 0.0 0.00 0.00 0.00 39 944.8
20260507121236 70 0.0 0.0 0.00 0.00 0.00 40 945.0
20260507120935 70 0.0 0.0 0.00 0.00 0.00 40 945.0
20260507120635 71 0.0 0.0 0.00 0.00 0.00 40 945.0
20260507120036 71 0.0 0.0 0.00 0.00 0.00 40 945.0
20260507115436 71 0.0 0.0 0.00 0.00 0.00 40 945.0
20260507115136 71 0.0 0.0 0.00 0.00 0.00 39 945.3
20260507114836 71 0.0 0.0 0.00 0.00 0.00 39 945.3
20260507114236 71 0.0 0.0 0.00 0.00 0.00 40 945.0
20260507113935 70 0.0 0.0 0.00 0.00 0.00 39 945.0
20260507113636 70 0.0 0.0 0.00 0.00 0.00 41 945.0
20260507113336 69 0.0 0.0 0.00 0.00 0.00 40 945.0
20260507113036 70 0.0 0.0 0.00 0.00 0.00 40 945.0
20260507112736 70 0.0 0.0 0.00 0.00 0.00 40 945.0
20260507112436 70 0.0 0.0 0.00 0.00 0.00 40 945.0
20260507112136 70 0.0 0.0 0.00 0.00 0.00 40 945.0
20260507111836 71 0.0 0.0 0.00 0.00 0.00 40 945.0
20260507111536 71 0.0 0.0 0.00 0.00 0.00 40 945.0
20260507111236 71 0.0 0.0 0.00 0.00 0.00 40 945.0
20260507110636 71 0.0 0.0 0.00 0.00 0.00 40 945.0
20260507105736 71 0.0 0.0 0.00 0.00 0.00 38 945.0
20260507105435 71 0.0 0.0 0.00 0.00 0.00 38 945.0
20260507105135 71 0.0 0.0 0.00 0.00 0.00 38 945.0
20260507104836 71 0.0 0.0 0.00 0.00 0.00 38 945.0
20260507104536 72 0.0 0.0 0.00 0.00 0.00 37 945.0
20260507104236 73 0.0 0.0 0.00 0.00 0.00 36 945.0
20260507103036 76 0.0 0.0 0.00 0.00 0.00 34 946.0
20260507102736 77 0.0 0.0 0.00 0.00 0.00 33 946.0
20260507102435 77 0.0 0.0 0.00 0.00 0.00 33 946.0
20260507102136 78 0.0 0.0 0.00 0.00 0.00 32 946.0
20260507101836 78 0.0 0.0 0.00 0.00 0.00 32 945.9
20260507101236 81 0.0 0.0 0.00 0.00 0.00 31 946.0
20260507100935 81 0.0 0.0 0.00 0.00 0.00 31 946.0
20260507100636 82 0.0 0.0 0.00 0.00 0.00 31 945.0
20260507100336 82 0.0 0.0 0.00 0.00 0.00 30 945.0
20260507095736 85 0.0 0.0 0.00 0.00 0.00 28 945.0
20260507095436 86 0.0 0.0 0.00 0.00 0.00 27 945.0
20260507095136 90 0.0 0.0 0.00 0.00 0.00 25 945.0
20260507094835 99 0.0 0.0 0.00 0.00 0.00 22 945.0
20260507094536 100 0.0 0.0 0.00 0.00 0.00 22 945.0
20260507094235 97 0.0 0.0 0.00 0.00 0.00 22 945.0
20260507093636 98 0.0 0.0 0.00 0.00 0.00 23 945.0
20260507093335 94 0.0 0.0 0.00 0.00 0.00 24 945.0
20260507092736 101 0.0 0.0 0.00 0.00 0.00 21 945.0
20260507092436 98 0.0 0.0 0.00 0.00 0.00 23 945.0
20260507092136 96 0.0 0.0 0.00 0.00 0.00 22 946.0
20260507091836 97 0.0 0.0 0.00 0.00 0.00 22 946.0
20260507091536 100 0.0 0.0 0.00 0.00 0.00 22 946.0
20260507091235 99 0.0 0.0 0.00 0.00 0.00 21 945.0
20260507090936 103 0.0 0.0 0.00 0.00 0.00 22 945.0
20260507090636 103 0.0 0.0 0.00 0.00 0.00 22 945.0
20260507090336 101 0.0 0.0 0.00 0.00 0.00 23 945.0
20260507090036 98 0.0 0.0 0.00 0.00 0.00 24 945.0
20260507085735 94 0.0 0.0 0.00 0.00 0.00 26 945.0
20260507085436 92 0.0 0.0 0.00 0.00 0.00 27 945.0
20260507085135 91 0.0 0.0 0.00 0.00 0.00 27 945.0
20260507084836 89 0.0 0.0 0.00 0.00 0.00 28 945.0
20260507084536 85 0.0 0.0 0.00 0.00 0.00 29 945.0
20260507084235 86 0.0 0.0 0.00 0.00 0.00 29 945.0
20260507083636 91 0.0 0.0 0.00 0.00 0.00 26 945.0
20260507083335 93 0.0 0.0 0.00 0.00 0.00 26 945.0
20260507083035 91 0.0 0.0 0.00 0.00 0.00 27 945.0
20260507082736 92 0.0 0.0 0.00 0.00 0.00 28 945.7
20260507082435 86 0.0 0.0 0.00 0.00 0.00 29 945.0
20260507081535 89 0.0 0.0 0.00 0.00 0.00 30 945.0
20260507081236 85 0.0 0.0 0.00 0.00 0.00 32 945.0
20260507080936 83 0.0 0.0 0.00 0.00 0.00 30 945.0
20260507080636 85 0.0 0.0 0.00 0.00 0.00 30 945.0
20260507080335 88 0.0 0.0 0.00 0.00 0.00 28 945.0
20260507075736 85 0.0 0.0 0.00 0.00 0.00 31 945.0
20260507075436 86 0.0 0.0 0.00 0.00 0.00 30 945.0
20260507075136 86 0.0 0.0 0.00 0.00 0.00 32 945.0
20260507074536 85 0.0 0.0 0.00 0.00 0.00 33 945.0
20260507074236 84 0.0 0.0 0.00 0.00 0.00 35 945.0
20260507073936 85 0.0 0.0 0.00 0.00 0.00 35 945.0
20260507073635 81 0.0 0.0 0.00 0.00 0.00 34 945.0
20260507073336 82 0.0 0.0 0.00 0.00 0.00 38 945.0
20260507073035 82 0.0 0.0 0.00 0.00 0.00 38 945.0
20260507072735 77 0.0 0.0 0.00 0.00 0.00 42 945.0
20260507072135 70 0.0 0.0 0.00 0.00 0.00 49 945.0
20260507071836 67 0.0 0.0 0.00 0.00 0.00 51 945.0
20260507071536 63 0.0 0.0 0.00 0.00 0.00 55 946.0
20260507070935 63 0.0 0.0 0.00 0.00 0.00 54 945.0
20260507070635 63 0.0 0.0 0.00 0.00 0.00 60 946.0
20260507070335 57 0.0 0.0 0.00 0.00 0.00 68 946.0
20260507070036 54 0.0 0.0 0.00 0.00 0.00 71 946.0
20260507065736 53 0.0 0.0 0.00 0.00 0.00 72 946.6
20260507065135 53 0.0 0.0 0.00 0.00 0.00 73 946.0
20260507064835 53 0.0 0.0 0.00 0.00 0.00 73 946.0
20260507064536 53 0.0 0.0 0.00 0.00 0.00 73 946.0
20260507064235 53 0.0 0.0 0.00 0.00 0.00 73 946.0
20260507063936 52 0.0 0.0 0.00 0.00 0.00 75 946.0
20260507063636 51 0.0 0.0 0.00 0.00 0.00 75 946.0
20260507063336 51 0.0 0.0 0.00 0.00 0.00 75 946.0
20260507063036 51 0.0 0.0 0.00 0.00 0.00 75 946.0
20260507062736 52 0.0 0.0 0.00 0.00 0.00 73 946.0
20260507062436 53 0.0 0.0 0.00 0.00 0.00 72 946.0
20260507061236 52 0.0 0.0 0.00 0.00 0.00 74 946.0
20260507060636 51 0.0 0.0 0.00 0.00 0.00 75 946.0
20260507060336 51 0.0 0.0 0.00 0.00 0.00 75 946.0
20260507060035 51 0.0 0.0 0.00 0.00 0.00 75 946.0
20260507055736 51 0.0 0.0 0.00 0.00 0.00 75 946.0
20260507055436 50 0.0 0.0 0.00 0.00 0.00 76 946.0
20260507055136 50 0.0 0.0 0.00 0.00 0.00 76 946.0
20260507054835 50 0.0 0.0 0.00 0.00 0.00 76 946.0
20260507054535 50 0.0 0.0 0.00 0.00 0.00 76 946.0
20260507054236 50 0.0 0.0 0.00 0.00 0.00 76 946.0
20260507053935 51 0.0 0.0 0.00 0.00 0.00 75 946.0
20260507053635 51 0.0 0.0 0.00 0.00 0.00 75 946.0
20260507053336 51 0.0 0.0 0.00 0.00 0.00 75 946.0
20260507053035 51 0.0 0.0 0.00 0.00 0.00 75 946.0
20260507052735 50 0.0 0.0 0.00 0.00 0.00 75 946.8
20260507052435 50 0.0 0.0 0.00 0.00 0.00 75 946.8
20260507052136 50 0.0 0.0 0.00 0.00 0.00 75 946.8
20260507051536 50 0.0 0.0 0.00 0.00 0.00 75 946.8
20260507051236 50 0.0 0.0 0.00 0.00 0.00 75 946.8
20260507050635 50 0.0 0.0 0.00 0.00 0.00 75 946.8
20260507050336 50 0.0 0.0 0.00 0.00 0.00 76 946.0
20260507050036 50 0.0 0.0 0.00 0.00 0.00 76 946.0
20260507045736 50 0.0 0.0 0.00 0.00 0.00 76 946.0
20260507045435 50 0.0 0.0 0.00 0.00 0.00 76 946.0
20260507045136 50 0.0 0.0 0.00 0.00 0.00 76 946.0
20260507044836 50 0.0 0.0 0.00 0.00 0.00 76 946.0
20260507044535 50 0.0 0.0 0.00 0.00 0.00 76 946.0
20260507044236 51 0.0 0.0 0.00 0.00 0.00 73 946.6
20260507043935 51 0.0 0.0 0.00 0.00 0.00 73 946.6
20260507043636 51 0.0 0.0 0.00 0.00 0.00 73 946.6
20260507043335 51 0.0 0.0 0.00 0.00 0.00 73 946.6
20260507043036 51 0.0 0.0 0.00 0.00 0.00 73 946.6
20260507042736 51 0.0 0.0 0.00 0.00 0.00 73 946.6
20260507042436 51 0.0 0.0 0.00 0.00 0.00 73 946.6
20260507042135 51 0.0 0.0 0.00 0.00 0.00 73 946.6
20260507041836 51 0.0 0.0 0.00 0.00 0.00 73 946.6
20260507041536 51 0.0 0.0 0.00 0.00 0.00 73 946.6
20260507041236 51 0.0 0.0 0.00 0.00 0.00 73 946.6
20260507040936 51 0.0 0.0 0.00 0.00 0.00 72 946.0
20260507040636 51 0.0 0.0 0.00 0.00 0.00 72 946.0
20260507035735 51 0.0 0.0 0.00 0.00 0.00 72 946.0
20260507035436 51 0.0 0.0 0.00 0.00 0.00 72 946.0
20260507035136 51 0.0 0.0 0.00 0.00 0.00 72 946.0
20260507034535 52 0.0 0.0 0.00 0.00 0.00 70 946.0
20260507033935 52 0.0 0.0 0.00 0.00 0.00 70 946.0
20260507033335 52 0.0 0.0 0.00 0.00 0.00 70 946.0
20260507033036 52 0.0 0.0 0.00 0.00 0.00 70 946.0
20260507032735 52 0.0 0.0 0.00 0.00 0.00 70 946.0
20260507032436 52 0.0 0.0 0.00 0.00 0.00 70 946.0
20260507032136 52 0.0 0.0 0.00 0.00 0.00 70 946.5
20260507031836 52 0.0 0.0 0.00 0.00 0.00 70 946.5
20260507031536 52 0.0 0.0 0.00 0.00 0.00 70 946.5
20260507031236 52 0.0 0.0 0.00 0.00 0.00 70 946.5
20260507030636 53 0.0 0.0 0.00 0.00 0.00 70 946.0
20260507030336 53 0.0 0.0 0.00 0.00 0.00 70 946.0
20260507030035 53 0.0 0.0 0.00 0.00 0.00 70 946.0
20260507025736 53 0.0 0.0 0.00 0.00 0.00 70 946.0
20260507025436 53 0.0 0.0 0.00 0.00 0.00 70 946.0
20260507025135 53 0.0 0.0 0.00 0.00 0.00 70 946.0
20260507024836 53 0.0 0.0 0.00 0.00 0.00 70 946.0
20260507024536 53 0.0 0.0 0.00 0.00 0.00 70 946.0
20260507024236 53 0.0 0.0 0.00 0.00 0.00 70 946.0
20260507023936 53 0.0 0.0 0.00 0.00 0.00 70 946.0
20260507023636 53 0.0 0.0 0.00 0.00 0.00 70 946.0
20260507023036 53 0.0 0.0 0.00 0.00 0.00 70 946.0
20260507022736 53 0.0 0.0 0.00 0.00 0.00 70 946.0
20260507022436 54 0.0 0.0 0.00 0.00 0.00 69 946.6
20260507022136 54 0.0 0.0 0.00 0.00 0.00 69 946.6
20260507021836 54 0.0 0.0 0.00 0.00 0.00 69 946.6
20260507021536 54 0.0 0.0 0.00 0.00 0.00 69 946.0
20260507021236 54 0.0 0.0 0.00 0.00 0.00 69 946.0
20260507020636 54 0.0 0.0 0.00 0.00 0.00 68 946.8
20260507020336 54 0.0 0.0 0.00 0.00 0.00 68 946.8
20260507015436 54 0.0 0.0 0.00 0.00 0.00 68 946.8
20260507015136 54 0.0 0.0 0.00 0.00 0.00 68 946.8
20260507014835 54 0.0 0.0 0.00 0.00 0.00 68 946.8
20260507014536 54 0.0 0.0 0.00 0.00 0.00 68 946.8
20260507014236 54 0.0 0.0 0.00 0.00 0.00 68 946.8
20260507013936 54 0.0 0.0 0.00 0.00 0.00 68 946.8
20260507013635 54 0.0 0.0 0.00 0.00 0.00 68 946.8
20260507013335 54 0.0 0.0 0.00 0.00 0.00 68 946.8
20260507012736 54 0.0 0.0 0.00 0.00 0.00 68 946.0
20260507012435 54 0.0 0.0 0.00 0.00 0.00 68 946.0
20260507012135 54 0.0 0.0 0.00 0.00 0.00 68 946.0
20260507011835 54 0.0 0.0 0.00 0.00 0.00 67 947.0
20260507011535 54 0.0 0.0 0.00 0.00 0.00 67 947.0
20260507010936 54 0.0 0.0 0.00 0.00 0.00 67 947.0
20260507010636 54 0.0 0.0 0.00 0.00 0.00 67 947.0
20260507010336 54 0.0 0.0 0.00 0.00 0.00 67 947.0
20260507010036 54 0.0 0.0 0.00 0.00 0.00 67 947.0
20260507005736 54 0.0 0.0 0.00 0.00 0.00 67 947.0
20260507005435 54 0.0 0.0 0.00 0.00 0.00 67 947.0
20260507005135 54 0.0 0.0 0.00 0.00 0.00 67 947.0
20260507004836 54 0.0 0.0 0.00 0.00 0.00 67 947.0
20260507004536 54 0.0 0.0 0.00 0.00 0.00 67 947.0
20260507004236 55 0.0 0.0 0.00 0.00 0.00 66 947.1
20260507003936 55 0.0 0.0 0.00 0.00 0.00 66 947.1
20260507003636 55 0.0 0.0 0.00 0.00 0.00 65 947.0
20260507003335 55 0.0 0.0 0.00 0.00 0.00 65 947.0
20260507003036 55 0.0 0.0 0.00 0.00 0.00 65 947.0
20260507002736 55 0.0 0.0 0.00 0.00 0.00 65 947.0
20260507002436 55 0.0 0.0 0.00 0.00 0.00 62 947.4
20260507002135 55 0.0 0.0 0.00 0.00 0.00 62 947.4
20260507001836 55 0.0 0.0 0.00 0.00 0.00 62 947.4
20260507001536 55 0.0 0.0 0.00 0.00 0.00 62 947.4
20260507001236 55 0.0 0.0 0.00 0.00 0.00 62 947.4
20260507000936 55 0.0 0.0 0.00 0.00 0.00 62 947.4
20260507000635 55 0.0 0.0 0.00 0.00 0.00 62 947.4
20260507000336 55 0.0 0.0 0.00 0.00 0.00 62 947.4
20260506235736 55 0.0 0.0 0.00 0.00 0.00 62 947.4
20260506235436 55 0.0 0.0 0.00 0.00 0.00 62 947.4
20260506235135 55 0.0 0.0 0.00 0.00 0.00 62 947.4